When you browse on this site, cookies collect data to enhance your experience and personalize the content and advertising you see.
Visit our Privacy Policy to learn more. By continuing to use the site, you agree to this use of cookies and data.
  • En España
  • Lista de países
  • Para 7 días
  • Temperatura del agua
  • El tiempo en el mapa
  • Informadores
  • user-avatar
    Iniciar sesión

    Tiempo cada hora Cuiaba

    Hoy, 24 Febrero, Lunes

    Tiempo Temperatura Precipitaciones Viento Presión Humedad
    00:00 +22°C° 0.2 mm 0 mps 740 mmHg 97%
    01:00 +22°C° 0.2 mm 0 mps 740 mmHg 97%
    02:00 +22°C° 0.2 mm 0 mps 740 mmHg 97%
    03:00 +22°C° 1 mm 0 mps 739 mmHg 97%
    04:00 +24°C° 1 mm 1 mps 739 mmHg 97%
    05:00 +24°C° 1 mm 1 mps 739 mmHg 97%
    06:00 +24°C° 6.1 mm 1 mps 740 mmHg 98%
    07:00 +25°C° 6.1 mm 1 mps 741 mmHg 98%
    08:00 +25°C° 6.1 mm 1 mps 741 mmHg 99%
    09:00 +25°C° 2.3 mm 2 mps 741 mmHg 97%
    10:00 +26°C° 2.3 mm 2 mps 741 mmHg 95%
    11:00 +26°C° 2.3 mm 2 mps 741 mmHg 93%
    12:00 +27°C° 0 mm 2 mps 740 mmHg 89%
    13:00 +28°C° 0 mm 2 mps 740 mmHg 84%
    14:00 +29°C° 0 mm 3 mps 739 mmHg 80%
    15:00 +29°C° 0 mm 2 mps 738 mmHg 82%
    16:00 +28°C° 0 mm 2 mps 737 mmHg 84%
    17:00 +28°C° 0 mm 1 mps 737 mmHg 86%
    18:00 +27°C° 0 mm 1 mps 737 mmHg 87%
    19:00 +26°C° 0 mm 1 mps 737 mmHg 88%
    20:00 +26°C° 0 mm 2 mps 738 mmHg 90%
    21:00 +25°C° 0 mm 2 mps 738 mmHg 89%
    22:00 +25°C° 0 mm 1 mps 739 mmHg 89%
    23:00 +25°C° 0 mm 1 mps 739 mmHg 89%

    Mañana, 25 Febrero, Martes

    Tiempo Temperatura Precipitaciones Viento Presión Humedad
    00:00 +25°C° 0 mm 1 mps 739 mmHg 89%
    01:00 +25°C° 0 mm 1 mps 739 mmHg 89%
    02:00 +25°C° 0 mm 1 mps 739 mmHg 90%
    03:00 +25°C° 0 mm 1 mps 739 mmHg 89%
    04:00 +25°C° 0 mm 1 mps 739 mmHg 88%
    05:00 +25°C° 0 mm 1 mps 739 mmHg 88%
    06:00 +26°C° 0 mm 1 mps 739 mmHg 88%
    07:00 +26°C° 0 mm 1 mps 740 mmHg 88%
    08:00 +26°C° 0 mm 1 mps 740 mmHg 88%
    09:00 +28°C° 0 mm 1 mps 740 mmHg 85%
    10:00 +29°C° 0 mm 2 mps 740 mmHg 81%
    11:00 +30°C° 0 mm 2 mps 740 mmHg 77%
    12:00 +31°C° 0 mm 2 mps 739 mmHg 73%
    13:00 +32°C° 0 mm 2 mps 738 mmHg 69%
    14:00 +34°C° 0 mm 2 mps 738 mmHg 64%
    15:00 +34°C° 0.1 mm 2 mps 737 mmHg 68%
    16:00 +33°C° 0.1 mm 1 mps 736 mmHg 72%
    17:00 +32°C° 0.1 mm 1 mps 736 mmHg 75%
    18:00 +31°C° 0.2 mm 1 mps 736 mmHg 78%
    19:00 +27°C° 0.2 mm 0 mps 737 mmHg 81%
    20:00 +26°C° 0.2 mm 0 mps 737 mmHg 83%
    21:00 +25°C° 0.2 mm 0 mps 738 mmHg 85%
    22:00 +27°C° 0.2 mm 1 mps 738 mmHg 87%
    23:00 +27°C° 0.2 mm 1 mps 739 mmHg 89%

    Pasado mañana, 26 Febrero, Miércoles

    Tiempo Temperatura Precipitaciones Viento Presión Humedad
    00:00 +26°C° 0.2 mm 1 mps 738 mmHg 90%
    01:00 +26°C° 0.2 mm 1 mps 738 mmHg 90%
    02:00 +26°C° 0.2 mm 1 mps 738 mmHg 91%
    03:00 +26°C° 0 mm 1 mps 738 mmHg 91%
    04:00 +26°C° 0 mm 1 mps 738 mmHg 91%
    05:00 +26°C° 0 mm 1 mps 738 mmHg 91%
    06:00 +26°C° 0 mm 1 mps 738 mmHg 89%
    07:00 +27°C° 0 mm 2 mps 739 mmHg 88%
    08:00 +28°C° 0 mm 2 mps 739 mmHg 86%
    09:00 +28°C° 0 mm 2 mps 739 mmHg 84%
    10:00 +29°C° 0 mm 2 mps 739 mmHg 82%
    11:00 +30°C° 0 mm 2 mps 739 mmHg 81%
    12:00 +31°C° 0.4 mm 2 mps 738 mmHg 75%
    13:00 +32°C° 0.4 mm 2 mps 737 mmHg 70%
    14:00 +34°C° 0.4 mm 2 mps 737 mmHg 65%
    15:00 +34°C° 0 mm 2 mps 736 mmHg 68%
    16:00 +33°C° 0 mm 1 mps 736 mmHg 70%
    17:00 +33°C° 0 mm 1 mps 736 mmHg 73%
    18:00 +31°C° 0.2 mm 1 mps 736 mmHg 76%
    19:00 +29°C° 0.2 mm 1 mps 737 mmHg 79%
    20:00 +28°C° 0.2 mm 1 mps 737 mmHg 82%
    21:00 +26°C° 0.1 mm 0 mps 737 mmHg 83%
    22:00 +25°C° 0.1 mm 0 mps 738 mmHg 85%
    23:00 +25°C° 0.1 mm 0 mps 738 mmHg 86%

    27 Febrero, Jueves

    Tiempo Temperatura Precipitaciones Viento Presión Humedad
    00:00 +27°C° 0.3 mm 1 mps 738 mmHg 87%
    01:00 +26°C° 0.3 mm 1 mps 737 mmHg 88%
    02:00 +26°C° 0.3 mm 1 mps 737 mmHg 90%
    03:00 +26°C° 0 mm 1 mps 737 mmHg 90%
    04:00 +26°C° 0 mm 1 mps 737 mmHg 91%
    05:00 +25°C° 0 mm 1 mps 737 mmHg 91%
    06:00 +26°C° 0 mm 1 mps 737 mmHg 89%
    07:00 +27°C° 0 mm 1 mps 738 mmHg 87%
    08:00 +28°C° 0 mm 1 mps 738 mmHg 85%
    09:00 +30°C° 0.1 mm 1 mps 738 mmHg 79%
    10:00 +31°C° 0.1 mm 1 mps 738 mmHg 73%
    11:00 +34°C° 0.1 mm 2 mps 738 mmHg 67%
    12:00 +34°C° 0.9 mm 2 mps 737 mmHg 67%
    13:00 +34°C° 0.9 mm 2 mps 737 mmHg 67%
    14:00 +34°C° 0.9 mm 2 mps 736 mmHg 66%
    15:00 +34°C° 0.6 mm 2 mps 735 mmHg 70%
    16:00 +32°C° 0.6 mm 1 mps 735 mmHg 75%
    17:00 +32°C° 0.6 mm 1 mps 735 mmHg 79%
    18:00 +30°C° 0.2 mm 1 mps 735 mmHg 82%
    19:00 +29°C° 0.2 mm 1 mps 736 mmHg 86%
    20:00 +27°C° 0.2 mm 1 mps 736 mmHg 90%
    21:00 +27°C° 1.5 mm 1 mps 737 mmHg 91%
    22:00 +27°C° 1.5 mm 1 mps 737 mmHg 91%
    23:00 +27°C° 1.5 mm 1 mps 738 mmHg 92%

    28 Febrero, Viernes

    Tiempo Temperatura Precipitaciones Viento Presión Humedad
    00:00 +26°C° 0.3 mm 1 mps 737 mmHg 93%
    01:00 +26°C° 0.3 mm 1 mps 737 mmHg 93%
    02:00 +26°C° 0.3 mm 1 mps 737 mmHg 94%
    03:00 +26°C° 0 mm 1 mps 737 mmHg 94%
    04:00 +26°C° 0 mm 1 mps 737 mmHg 94%
    05:00 +26°C° 0 mm 1 mps 737 mmHg 94%
    06:00 +26°C° 0 mm 1 mps 738 mmHg 92%
    07:00 +27°C° 0 mm 1 mps 739 mmHg 90%
    08:00 +28°C° 0 mm 2 mps 739 mmHg 87%
    09:00 +29°C° 0.9 mm 2 mps 739 mmHg 85%
    10:00 +30°C° 0.9 mm 2 mps 739 mmHg 83%
    11:00 +31°C° 0.9 mm 3 mps 739 mmHg 80%
    12:00 +31°C° 2.4 mm 3 mps 738 mmHg 81%
    13:00 +31°C° 2.4 mm 3 mps 738 mmHg 81%
    14:00 +31°C° 2.4 mm 3 mps 737 mmHg 82%
    15:00 +30°C° 1.5 mm 3 mps 737 mmHg 84%
    16:00 +30°C° 1.5 mm 2 mps 736 mmHg 87%
    17:00 +30°C° 1.5 mm 1 mps 736 mmHg 89%
    18:00 +29°C° 0.5 mm 1 mps 737 mmHg 90%
    19:00 +28°C° 0.5 mm 1 mps 737 mmHg 91%
    20:00 +27°C° 0.5 mm 1 mps 738 mmHg 92%
    21:00 +27°C° 0.1 mm 1 mps 738 mmHg 93%
    22:00 +27°C° 0.1 mm 2 mps 738 mmHg 93%
    23:00 +27°C° 0.1 mm 2 mps 739 mmHg 94%

    29 Febrero, Sábado

    Tiempo Temperatura Precipitaciones Viento Presión Humedad
    00:00 +26°C° 1.1 mm 2 mps 738 mmHg 95%
    01:00 +26°C° 1.1 mm 2 mps 738 mmHg 95%
    02:00 +26°C° 1.1 mm 2 mps 738 mmHg 95%
    03:00 +26°C° 0.9 mm 2 mps 738 mmHg 95%
    04:00 +26°C° 0.9 mm 1 mps 738 mmHg 95%
    05:00 +26°C° 0.9 mm 1 mps 738 mmHg 95%
    06:00 +26°C° 0.7 mm 1 mps 739 mmHg 94%
    07:00 +26°C° 0.7 mm 1 mps 740 mmHg 93%
    08:00 +27°C° 0.7 mm 2 mps 740 mmHg 93%
    09:00 +28°C° 1.7 mm 2 mps 740 mmHg 90%
    10:00 +29°C° 1.7 mm 2 mps 740 mmHg 88%
    11:00 +29°C° 1.7 mm 2 mps 740 mmHg 86%
    12:00 +29°C° 2 mm 2 mps 740 mmHg 88%
    13:00 +28°C° 2 mm 2 mps 739 mmHg 91%
    14:00 +27°C° 2 mm 1 mps 738 mmHg 93%
    15:00 +27°C° 0.7 mm 1 mps 738 mmHg 93%
    16:00 +27°C° 0.7 mm 1 mps 738 mmHg 93%
    17:00 +25°C° 0.7 mm 0 mps 737 mmHg 93%
    18:00 +26°C° 0.5 mm 1 mps 738 mmHg 93%
    19:00 +26°C° 0.5 mm 1 mps 738 mmHg 93%
    20:00 +26°C° 0.5 mm 1 mps 739 mmHg 94%
    21:00 +26°C° 0.3 mm 2 mps 739 mmHg 94%
    22:00 +26°C° 0.3 mm 2 mps 740 mmHg 94%
    23:00 +25°C° 0.3 mm 2 mps 740 mmHg 94%
    Mostrar más